Aérodrome :
LOGIN :

S'inscrire | Disclaimer

   EN    FR    IT 

 










Légende :    VFR   VFR Marginal   IFR   IFR Intensif   IFR Très Intensif
Visi : 
Plafond : 
>= 8 km
>= 3000ft
5 à 8 km
1000 à 3000 ft
1500m à 5 km
500 à 1000 ft
800 à 1500m
200 à 500 ft
< 800m
< 200 ft
Symboles :   Orages  Brouillard  Fortes neiges  Fortes précipitations  Vent > 20 kt
SIGMETs :   Divers  Orages  Givrage  Turbulence  Onde Orograph.  Cendres Volcan.







- Altitude de l'aérodrome : 80 ft
- Code IATA : LPL
- Voir les cartes d'approche


EGGP - Liverpool John Lennon

DERNIER METAR :
  • 191320Z 25015KT 9999 FEW023 05/02 Q1005

METARs EXPIRÉS :
  • 191250Z 25016KT 9999 FEW023 05/02 Q1005
  • 191220Z 25017KT 9999 FEW023 05/01 Q1005
  • 191150Z 26015KT 9999 FEW023 SCT044CB 06/02 Q1005
  • 191120Z 25012KT 9999 FEW023 SCT044CB 06/02 Q1006
  • 191050Z 25010KT 9999 FEW023 05/02 Q1006

TAF TAF EGGP
Valide du 19 à 12h jusqu'au 20 à 12h UTC


191101Z 1912/2012 26012KT 9999 FEW020
TEMPO 1912/1918 27018G30KT 7000 SHRA
PROB30
TEMPO 1912/1924 4000 +SHRAGS BKN008 BKN020CB
PROB30
TEMPO 1918/1924 26015G25KT
BECMG 2001/2004 17005KT
PROB30
TEMPO 2009/2012 6000 -RA BKN006
ATIS : +44 151 907 2000 (option 5 or ext 5150)
Météo : +44 871 750 5150
Pas de NOTAMs connus pour ce terrain.



MET'MAP, la Météo Aéronautique d'un coup d'oeil ! - Copyright ORBIFLY Décembre 2007 - Disclaimer

ORBIFLY MET'MAP TEAM :

Programmation & Développement : Alexandra Zaïnal
Conception & Développement : Baudouin d'Aumeries
Co-Programmation & Développement : Marc-Olivier Méhu
Soutien technique & logistique : Manuel Goepfert

Contact : metmap@orbifly.com




SOURCES & CREDITS :

   NOAA